When you browse on this site, cookies collect data to enhance your experience and personalize the content and advertising you see.
Visit our Privacy Policy to learn more. By continuing to use the site, you agree to this use of cookies and data.
  • In Portugal
  • List of Countries
  • For 7 days
  • Water Temperature
  • Weather Map
  • Weather Widgets
  • user-avatar
    Login

    Hourly Weather Porto-Novo

    Today, 20 November, Wednesday

    Time Temperature Precipitation Wind Pressure Humidity
    00:00 +28°C° 0 mm 2 mps 756 mmHg 84%
    01:00 +28°C° 0.1 mm 2 mps 756 mmHg 85%
    02:00 +28°C° 0.1 mm 2 mps 755 mmHg 86%
    03:00 +27°C° 0.1 mm 2 mps 755 mmHg 88%
    04:00 +27°C° 0 mm 2 mps 755 mmHg 88%
    05:00 +27°C° 0 mm 2 mps 756 mmHg 89%
    06:00 +27°C° 0 mm 2 mps 756 mmHg 89%
    07:00 +29°C° 0 mm 2 mps 757 mmHg 80%
    08:00 +31°C° 0 mm 1 mps 757 mmHg 72%
    09:00 +33°C° 0 mm 1 mps 757 mmHg 64%
    10:00 +34°C° 0 mm 1 mps 756 mmHg 59%
    11:00 +36°C° 0 mm 2 mps 756 mmHg 53%
    12:00 +37°C° 0 mm 2 mps 755 mmHg 50%
    13:00 +37°C° 0 mm 3 mps 755 mmHg 51%
    14:00 +36°C° 0 mm 3 mps 754 mmHg 52%
    15:00 +36°C° 0 mm 3 mps 754 mmHg 54%
    16:00 +34°C° 0.1 mm 3 mps 754 mmHg 61%
    17:00 +33°C° 0.1 mm 3 mps 754 mmHg 69%
    18:00 +30°C° 0.1 mm 3 mps 755 mmHg 76%
    19:00 +30°C° 0 mm 3 mps 755 mmHg 78%
    20:00 +30°C° 0 mm 4 mps 756 mmHg 79%
    21:00 +30°C° 0 mm 4 mps 756 mmHg 80%
    22:00 +30°C° 0 mm 3 mps 756 mmHg 81%
    23:00 +30°C° 0 mm 3 mps 756 mmHg 81%

    Tomorrow, 21 November, Thursday

    Time Temperature Precipitation Wind Pressure Humidity
    00:00 +30°C° 0 mm 3 mps 756 mmHg 82%
    01:00 +29°C° 0.2 mm 3 mps 755 mmHg 82%
    02:00 +29°C° 0.2 mm 3 mps 755 mmHg 83%
    03:00 +29°C° 0.2 mm 3 mps 755 mmHg 84%
    04:00 +29°C° 0 mm 3 mps 755 mmHg 84%
    05:00 +29°C° 0 mm 3 mps 755 mmHg 84%
    06:00 +29°C° 0 mm 3 mps 756 mmHg 84%
    07:00 +30°C° 0 mm 3 mps 756 mmHg 78%
    08:00 +31°C° 0 mm 3 mps 756 mmHg 73%
    09:00 +32°C° 0 mm 2 mps 757 mmHg 67%
    10:00 +34°C° 0 mm 3 mps 756 mmHg 65%
    11:00 +34°C° 0 mm 4 mps 756 mmHg 63%
    12:00 +35°C° 0 mm 4 mps 756 mmHg 61%
    13:00 +34°C° 0.6 mm 4 mps 755 mmHg 63%
    14:00 +34°C° 0.6 mm 5 mps 755 mmHg 66%
    15:00 +33°C° 0.6 mm 5 mps 754 mmHg 68%
    16:00 +32°C° 0.5 mm 5 mps 755 mmHg 71%
    17:00 +30°C° 0.5 mm 5 mps 755 mmHg 75%
    18:00 +29°C° 0.5 mm 5 mps 756 mmHg 79%
    19:00 +29°C° 0 mm 5 mps 756 mmHg 79%
    20:00 +29°C° 0 mm 5 mps 756 mmHg 80%
    21:00 +29°C° 0 mm 5 mps 757 mmHg 81%
    22:00 +29°C° 0 mm 5 mps 757 mmHg 82%
    23:00 +29°C° 0 mm 4 mps 757 mmHg 83%

    Day after tomorrow, 22 November, Friday

    Time Temperature Precipitation Wind Pressure Humidity
    00:00 +29°C° 0 mm 4 mps 756 mmHg 84%
    01:00 +29°C° 0 mm 4 mps 756 mmHg 84%
    02:00 +29°C° 0 mm 4 mps 756 mmHg 85%
    03:00 +29°C° 0 mm 4 mps 756 mmHg 85%
    04:00 +29°C° 0.1 mm 4 mps 756 mmHg 85%
    05:00 +29°C° 0.1 mm 4 mps 756 mmHg 85%
    06:00 +29°C° 0.1 mm 3 mps 756 mmHg 85%
    07:00 +29°C° 0.8 mm 4 mps 757 mmHg 81%
    08:00 +30°C° 0.8 mm 4 mps 757 mmHg 77%
    09:00 +32°C° 0.8 mm 4 mps 758 mmHg 73%
    10:00 +33°C° 0.2 mm 4 mps 757 mmHg 71%
    11:00 +33°C° 0.2 mm 4 mps 757 mmHg 68%
    12:00 +34°C° 0.2 mm 4 mps 756 mmHg 65%
    13:00 +33°C° 0.3 mm 4 mps 756 mmHg 67%
    14:00 +33°C° 0.3 mm 4 mps 756 mmHg 68%
    15:00 +33°C° 0.3 mm 5 mps 755 mmHg 69%
    16:00 +32°C° 0 mm 4 mps 756 mmHg 73%
    17:00 +30°C° 0 mm 3 mps 756 mmHg 77%
    18:00 +29°C° 0 mm 3 mps 756 mmHg 81%
    19:00 +29°C° 0.1 mm 3 mps 757 mmHg 82%
    20:00 +29°C° 0.1 mm 3 mps 757 mmHg 83%
    21:00 +29°C° 0.1 mm 2 mps 758 mmHg 85%
    22:00 +28°C° 0.1 mm 3 mps 758 mmHg 86%
    23:00 +28°C° 0.1 mm 3 mps 757 mmHg 87%

    23 November, Saturday

    Time Temperature Precipitation Wind Pressure Humidity
    00:00 +28°C° 0.1 mm 3 mps 757 mmHg 88%
    01:00 +28°C° 0 mm 3 mps 757 mmHg 88%
    02:00 +28°C° 0 mm 3 mps 756 mmHg 89%
    03:00 +28°C° 0 mm 2 mps 756 mmHg 89%
    04:00 +28°C° 0 mm 2 mps 756 mmHg 88%
    05:00 +28°C° 0 mm 2 mps 756 mmHg 87%
    06:00 +28°C° 0 mm 1 mps 757 mmHg 85%
    07:00 +29°C° 0 mm 2 mps 757 mmHg 79%
    08:00 +30°C° 0 mm 2 mps 757 mmHg 73%
    09:00 +31°C° 0 mm 2 mps 757 mmHg 68%
    10:00 +32°C° 0 mm 2 mps 757 mmHg 65%
    11:00 +34°C° 0 mm 2 mps 756 mmHg 63%
    12:00 +34°C° 0 mm 2 mps 756 mmHg 61%
    13:00 +34°C° 0 mm 3 mps 756 mmHg 62%
    14:00 +34°C° 0 mm 3 mps 755 mmHg 64%
    15:00 +33°C° 0 mm 3 mps 754 mmHg 66%
    16:00 +31°C° 0 mm 3 mps 755 mmHg 70%
    17:00 +30°C° 0 mm 3 mps 755 mmHg 75%
    18:00 +29°C° 0 mm 3 mps 755 mmHg 79%
    19:00 +29°C° 0 mm 2 mps 756 mmHg 80%
    20:00 +29°C° 0 mm 2 mps 756 mmHg 81%
    21:00 +28°C° 0 mm 2 mps 757 mmHg 81%
    22:00 +28°C° 0 mm 3 mps 757 mmHg 82%
    23:00 +28°C° 0 mm 3 mps 757 mmHg 82%

    24 November, Sunday

    Time Temperature Precipitation Wind Pressure Humidity
    00:00 +28°C° 0 mm 3 mps 756 mmHg 83%
    01:00 +28°C° 0 mm 3 mps 756 mmHg 84%
    02:00 +28°C° 0 mm 3 mps 756 mmHg 85%
    03:00 +28°C° 0 mm 2 mps 755 mmHg 86%
    04:00 +28°C° 0 mm 2 mps 755 mmHg 87%
    05:00 +28°C° 0 mm 2 mps 756 mmHg 87%
    06:00 +27°C° 0 mm 2 mps 756 mmHg 88%
    07:00 +29°C° 0 mm 2 mps 756 mmHg 82%
    08:00 +30°C° 0 mm 2 mps 757 mmHg 76%
    09:00 +31°C° 0 mm 3 mps 757 mmHg 70%
    10:00 +33°C° 0 mm 3 mps 757 mmHg 69%
    11:00 +33°C° 0 mm 3 mps 756 mmHg 67%
    12:00 +32°C° 0 mm 2 mps 756 mmHg 66%
    13:00 +33°C° 0 mm 3 mps 755 mmHg 66%
    14:00 +33°C° 0 mm 3 mps 755 mmHg 66%
    15:00 +33°C° 0 mm 3 mps 754 mmHg 66%
    16:00 +31°C° 0 mm 3 mps 755 mmHg 70%
    17:00 +30°C° 0 mm 2 mps 755 mmHg 75%
    18:00 +29°C° 0 mm 2 mps 755 mmHg 80%
    19:00 +29°C° 0 mm 2 mps 756 mmHg 80%
    20:00 +28°C° 0 mm 2 mps 756 mmHg 81%
    21:00 +28°C° 0 mm 2 mps 756 mmHg 81%
    22:00 +28°C° 0 mm 2 mps 756 mmHg 82%
    23:00 +28°C° 0 mm 2 mps 756 mmHg 82%

    25 November, Monday

    Time Temperature Precipitation Wind Pressure Humidity
    00:00 +28°C° 0 mm 3 mps 756 mmHg 82%
    01:00 +28°C° 0 mm 3 mps 755 mmHg 83%
    02:00 +28°C° 0 mm 2 mps 755 mmHg 83%
    03:00 +27°C° 0 mm 2 mps 755 mmHg 84%
    04:00 +27°C° 0 mm 2 mps 755 mmHg 85%
    05:00 +27°C° 0 mm 2 mps 756 mmHg 86%
    06:00 +27°C° 0 mm 1 mps 756 mmHg 87%
    07:00 +29°C° 0 mm 2 mps 756 mmHg 79%
    08:00 +31°C° 0 mm 2 mps 757 mmHg 71%
    09:00 +32°C° 0 mm 2 mps 757 mmHg 63%
    10:00 +34°C° 0 mm 2 mps 757 mmHg 62%
    11:00 +34°C° 0 mm 2 mps 756 mmHg 62%
    12:00 +34°C° 0 mm 3 mps 756 mmHg 61%
    13:00 +34°C° 0 mm 3 mps 755 mmHg 61%
    14:00 +34°C° 0 mm 3 mps 755 mmHg 62%
    15:00 +34°C° 0 mm 3 mps 754 mmHg 63%
    16:00 +33°C° 0 mm 3 mps 754 mmHg 69%
    17:00 +30°C° 0 mm 3 mps 755 mmHg 74%
    18:00 +29°C° 0 mm 2 mps 755 mmHg 80%
    19:00 +29°C° 0 mm 2 mps 755 mmHg 81%
    20:00 +29°C° 0 mm 2 mps 756 mmHg 83%
    21:00 +28°C° 0 mm 2 mps 756 mmHg 84%
    22:00 +28°C° 0 mm 3 mps 756 mmHg 84%
    23:00 +28°C° 0 mm 3 mps 756 mmHg 85%
    Show more